| time (UTC) | temp F | wind direction | speed knots | gust knots | rain 1hr in | rain 24hr in | rain mn in | humidity % | barometer mb |
| 20260507075518 | 71 | 135 | 5.2 | 13.0 | 0.00 | 0.00 | 0.00 | 43 | 1015.7 |
| 20260507074519 | 71 | 148 | 4.3 | 8.7 | 0.00 | 0.00 | 0.00 | 43 | 1015.8 |
| 20260507073519 | 70 | 140 | 5.2 | 9.6 | 0.00 | 0.00 | 0.00 | 44 | 1015.9 |
| 20260507072519 | 69 | 151 | 5.2 | 12.2 | 0.00 | 0.00 | 0.00 | 45 | 1015.9 |
| 20260507071519 | 69 | 122 | 3.5 | 8.7 | 0.00 | 0.00 | 0.00 | 51 | 1015.8 |
| 20260507070539 | 68 | 137 | 2.6 | 6.1 | 0.00 | 0.00 | 0.00 | 53 | 1015.9 |
| 20260507065518 | 67 | 134 | 2.6 | 6.1 | 0.00 | 0.00 | 0.00 | 53 | 1015.9 |
| 20260507064518 | 66 | 133 | 2.6 | 5.2 | 0.00 | 0.00 | 0.00 | 53 | 1015.9 |
| 20260507063538 | 65 | 120 | 2.6 | 6.1 | 0.00 | 0.00 | 0.00 | 54 | 1015.9 |
| 20260507062539 | 65 | 136 | 2.6 | 6.1 | 0.00 | 0.00 | 0.00 | 54 | 1016.0 |
| 20260507061518 | 64 | 147 | 1.7 | 3.5 | 0.00 | 0.00 | 0.00 | 56 | 1016.0 |
| 20260507060519 | 63 | 122 | 1.7 | 4.3 | 0.00 | 0.00 | 0.00 | 58 | 1016.0 |
| 20260507055518 | 63 | 141 | 2.6 | 5.2 | 0.00 | 0.00 | 0.00 | 57 | 1016.1 |
| 20260507054537 | 62 | 130 | 1.7 | 2.6 | 0.00 | 0.00 | 0.00 | 60 | 1016.1 |
| 20260507053519 | 62 | 128 | 1.7 | 2.6 | 0.00 | 0.00 | 0.00 | 60 | 1016.1 |
| 20260507052520 | 61 | 126 | 0.9 | 1.7 | 0.00 | 0.00 | 0.00 | 62 | 1016.2 |
| 20260507051518 | 60 | 120 | 1.7 | 2.6 | 0.00 | 0.00 | 0.00 | 62 | 1016.0 |
| 20260507050539 | 59 | 125 | 1.7 | 2.6 | 0.00 | 0.00 | 0.00 | 62 | 1016.0 |
| 20260507045519 | 59 | 137 | 0.9 | 1.7 | 0.00 | 0.00 | 0.00 | 63 | 1016.0 |
| 20260507044519 | 58 | 129 | 0.9 | 1.7 | 0.00 | 0.00 | 0.00 | 65 | 1015.9 |
| 20260507043518 | 57 | 125 | 0.9 | 2.6 | 0.00 | 0.00 | 0.00 | 66 | 1015.8 |
| 20260507042523 | 57 | 118 | 0.9 | 2.6 | 0.00 | 0.00 | 0.00 | 65 | 1015.7 |
| 20260507041540 | 56 | 120 | 0.9 | 2.6 | 0.00 | 0.00 | 0.00 | 66 | 1015.6 |
| 20260507040541 | 55 | 113 | 0.9 | 1.7 | 0.00 | 0.00 | 0.00 | 67 | 1015.7 |
| 20260507035518 | 54 | 114 | 0.9 | 1.7 | 0.00 | 0.00 | 0.00 | 67 | 1015.6 |
| 20260507034541 | 54 | 104 | 0.9 | 1.7 | 0.00 | 0.00 | 0.00 | 67 | 1015.6 |
| 20260507033525 | 54 | 110 | 1.7 | 1.7 | 0.00 | 0.00 | 0.00 | 66 | 1015.6 |
| 20260507032519 | 55 | 110 | 0.9 | 3.5 | 0.00 | 0.00 | 0.00 | 65 | 1015.5 |
| 20260507031519 | 55 | 111 | 1.7 | 2.6 | 0.00 | 0.00 | 0.00 | 63 | 1015.5 |
| 20260507030521 | 56 | 119 | 0.9 | 1.7 | 0.00 | 0.00 | 0.00 | 60 | 1015.4 |
| 20260507025539 | 56 | 116 | 0.0 | 1.7 | 0.00 | 0.00 | 0.00 | 60 | 1015.4 |
| 20260507024519 | 56 | 153 | 0.9 | 1.7 | 0.00 | 0.00 | 0.00 | 59 | 1015.3 |
| 20260507023518 | 57 | 150 | 1.7 | 2.6 | 0.00 | 0.00 | 0.00 | 58 | 1015.2 |
| 20260507022518 | 57 | 157 | 0.9 | 1.7 | 0.00 | 0.00 | 0.00 | 57 | 1015.2 |
| 20260507021519 | 57 | 133 | 0.0 | 0.9 | 0.00 | 0.00 | 0.00 | 57 | 1015.2 |
| 20260507020539 | 57 | 160 | 0.9 | 1.7 | 0.00 | 0.00 | 0.00 | 57 | 1015.2 |
| 20260507015518 | 58 | 165 | 0.9 | 1.7 | 0.00 | 0.00 | 0.00 | 56 | 1015.1 |
| 20260507014539 | 58 | 174 | 0.9 | 1.7 | 0.00 | 0.00 | 0.00 | 56 | 1015.1 |
| 20260507013520 | 58 | 170 | 1.7 | 2.6 | 0.00 | 0.00 | 0.00 | 56 | 1015.1 |
| 20260507012518 | 58 | 171 | 1.7 | 5.2 | 0.00 | 0.00 | 0.00 | 56 | 1015.1 |
| 20260507011538 | 58 | 160 | 1.7 | 5.2 | 0.00 | 0.00 | 0.00 | 57 | 1015.1 |
| 20260507010518 | 58 | 147 | 1.7 | 1.7 | 0.00 | 0.00 | 0.00 | 57 | 1015.1 |
| 20260507005558 | 58 | 139 | 0.9 | 1.7 | 0.00 | 0.00 | 0.00 | 57 | 1015.2 |
| 20260507004524 | 59 | 153 | 1.7 | 2.6 | 0.00 | 0.00 | 0.00 | 56 | 1015.1 |
| 20260507003518 | 59 | 154 | 1.7 | 6.1 | 0.00 | 0.00 | 0.00 | 55 | 1015.1 |
| 20260507002520 | 59 | 157 | 1.7 | 4.3 | 0.00 | 0.00 | 0.00 | 54 | 1015.1 |
| 20260507001519 | 59 | 179 | 2.6 | 5.2 | 0.00 | 0.00 | 0.00 | 54 | 1015.1 |
| 20260507000519 | 60 | 174 | 2.6 | 5.2 | 0.00 | 0.00 | 0.00 | 54 | 1015.1 |
| 20260506235519 | 60 | 159 | 3.5 | 7.8 | 0.00 | 0.00 | 0.00 | 53 | 1015.1 |
| 20260506234520 | 60 | 162 | 3.5 | 7.8 | 0.00 | 0.00 | 0.00 | 53 | 1015.1 |
| 20260506233518 | 60 | 169 | 3.5 | 7.8 | 0.00 | 0.00 | 0.00 | 54 | 1015.1 |
| 20260506232518 | 61 | 167 | 4.3 | 10.4 | 0.00 | 0.00 | 0.00 | 54 | 1015.0 |
| 20260506231519 | 61 | 157 | 3.5 | 8.7 | 0.00 | 0.00 | 0.00 | 54 | 1015.1 |
| 20260506230538 | 61 | 165 | 4.3 | 10.4 | 0.00 | 0.00 | 0.00 | 55 | 1015.1 |
| 20260506225517 | 61 | 174 | 5.2 | 12.2 | 0.00 | 0.00 | 0.00 | 56 | 1015.0 |
| 20260506224519 | 61 | 165 | 4.3 | 7.0 | 0.00 | 0.00 | 0.00 | 57 | 1015.0 |
| 20260506223520 | 61 | 168 | 5.2 | 11.3 | 0.00 | 0.00 | 0.00 | 58 | 1015.1 |
| 20260506222518 | 62 | 172 | 5.2 | 9.6 | 0.00 | 0.00 | 0.00 | 58 | 1015.1 |
| 20260506221518 | 62 | 168 | 6.1 | 12.2 | 0.00 | 0.00 | 0.00 | 59 | 1015.1 |
| 20260506220518 | 62 | 178 | 6.1 | 12.2 | 0.00 | 0.00 | 0.00 | 59 | 1015.0 |
| 20260506215538 | 62 | 169 | 6.1 | 13.0 | 0.00 | 0.00 | 0.00 | 59 | 1014.9 |
| 20260506214518 | 62 | 167 | 7.8 | 14.8 | 0.00 | 0.00 | 0.00 | 59 | 1014.9 |
| 20260506213518 | 63 | 161 | 8.7 | 15.6 | 0.00 | 0.00 | 0.00 | 58 | 1014.8 |
| 20260506212518 | 63 | 157 | 8.7 | 15.6 | 0.00 | 0.00 | 0.00 | 58 | 1014.7 |
| 20260506211529 | 63 | 166 | 8.7 | 13.0 | 0.00 | 0.00 | 0.00 | 57 | 1014.7 |
| 20260506210539 | 64 | 174 | 7.8 | 14.8 | 0.00 | 0.00 | 0.00 | 57 | 1014.6 |
| 20260506205518 | 64 | 158 | 6.1 | 12.2 | 0.00 | 0.00 | 0.00 | 56 | 1014.7 |
| 20260506204540 | 64 | 163 | 5.2 | 11.3 | 0.00 | 0.00 | 0.00 | 56 | 1014.6 |
| 20260506203518 | 65 | 156 | 3.5 | 12.2 | 0.00 | 0.00 | 0.00 | 55 | 1014.6 |
| 20260506202518 | 65 | 159 | 2.6 | 7.8 | 0.00 | 0.00 | 0.00 | 54 | 1014.4 |
| 20260506201540 | 65 | 155 | 3.5 | 12.2 | 0.00 | 0.00 | 0.00 | 54 | 1014.5 |
| 20260506200540 | 66 | 163 | 2.6 | 6.1 | 0.00 | 0.00 | 0.00 | 53 | 1014.4 |
| 20260506195519 | 66 | 162 | 3.5 | 10.4 | 0.00 | 0.00 | 0.00 | 53 | 1014.3 |
| 20260506194519 | 66 | 148 | 3.5 | 7.0 | 0.00 | 0.00 | 0.00 | 53 | 1014.2 |
| 20260506193520 | 66 | 154 | 2.6 | 8.7 | 0.00 | 0.00 | 0.00 | 53 | 1014.1 |
| 20260506192520 | 67 | 154 | 3.5 | 9.6 | 0.00 | 0.00 | 0.00 | 52 | 1014.2 |
| 20260506191522 | 67 | 162 | 3.5 | 8.7 | 0.00 | 0.00 | 0.00 | 51 | 1014.0 |
| 20260506190519 | 68 | 153 | 4.3 | 10.4 | 0.00 | 0.00 | 0.00 | 50 | 1014.0 |
| 20260506185539 | 68 | 166 | 6.1 | 13.9 | 0.00 | 0.00 | 0.00 | 50 | 1013.8 |
| 20260506184520 | 68 | 170 | 3.5 | 9.6 | 0.00 | 0.00 | 0.00 | 49 | 1013.6 |
| 20260506183520 | 69 | 156 | 5.2 | 9.6 | 0.00 | 0.00 | 0.00 | 49 | 1013.5 |
| 20260506182519 | 69 | 160 | 4.3 | 11.3 | 0.00 | 0.00 | 0.00 | 49 | 1013.4 |
| 20260506181520 | 69 | 166 | 2.6 | 7.0 | 0.00 | 0.00 | 0.00 | 48 | 1013.3 |
| 20260506180519 | 69 | 159 | 3.5 | 7.0 | 0.00 | 0.00 | 0.00 | 48 | 1013.2 |
| 20260506175518 | 70 | 169 | 2.6 | 7.8 | 0.00 | 0.00 | 0.00 | 48 | 1013.1 |
| 20260506174517 | 70 | 151 | 1.7 | 2.6 | 0.00 | 0.00 | 0.00 | 47 | 1012.9 |
| 20260506173518 | 71 | 158 | 1.7 | 3.5 | 0.00 | 0.00 | 0.00 | 46 | 1012.9 |
| 20260506172518 | 72 | 182 | 0.9 | 4.3 | 0.00 | 0.00 | 0.00 | 45 | 1012.8 |
| 20260506171520 | 72 | 174 | 2.6 | 7.0 | 0.00 | 0.00 | 0.00 | 44 | 1012.7 |
| 20260506170518 | 73 | 169 | 2.6 | 6.1 | 0.00 | 0.00 | 0.00 | 42 | 1012.7 |
| 20260506165522 | 74 | 169 | 4.3 | 9.6 | 0.00 | 0.00 | 0.00 | 42 | 1012.6 |
| 20260506164520 | 75 | 182 | 4.3 | 8.7 | 0.00 | 0.00 | 0.00 | 40 | 1012.5 |
| 20260506163519 | 76 | 178 | 5.2 | 9.6 | 0.00 | 0.00 | 0.00 | 39 | 1012.3 |
| 20260506162519 | 76 | 178 | 7.0 | 11.3 | 0.00 | 0.00 | 0.00 | 39 | 1012.5 |
| 20260506161519 | 77 | 158 | 3.5 | 9.6 | 0.00 | 0.00 | 0.00 | 39 | 1012.3 |
| 20260506160520 | 78 | 160 | 2.6 | 7.0 | 0.00 | 0.00 | 0.00 | 38 | 1012.3 |
| 20260506155518 | 78 | 154 | 3.5 | 9.6 | 0.00 | 0.00 | 0.00 | 38 | 1012.2 |
| 20260506154519 | 79 | 163 | 2.6 | 6.1 | 0.00 | 0.00 | 0.00 | 37 | 1012.2 |
| 20260506153519 | 79 | 136 | 1.7 | 5.2 | 0.00 | 0.00 | 0.00 | 36 | 1012.2 |
| 20260506152520 | 80 | 145 | 1.7 | 4.3 | 0.00 | 0.00 | 0.00 | 36 | 1012.1 |
| 20260506151520 | 79 | 159 | 1.7 | 7.0 | 0.00 | 0.00 | 0.00 | 37 | 1012.3 |
| 20260506150519 | 79 | 174 | 5.2 | 12.2 | 0.00 | 0.00 | 0.00 | 36 | 1012.3 |
| 20260506145519 | 80 | 172 | 3.5 | 7.8 | 0.00 | 0.00 | 0.00 | 35 | 1012.3 |
| 20260506143520 | 80 | 171 | 6.1 | 11.3 | 0.00 | 0.00 | 0.00 | 35 | 1012.5 |
| 20260506142519 | 81 | 186 | 6.1 | 10.4 | 0.00 | 0.00 | 0.00 | 34 | 1012.3 |
| 20260506141520 | 81 | 167 | 2.6 | 7.8 | 0.00 | 0.00 | 0.00 | 35 | 1012.4 |
| 20260506140519 | 81 | 184 | 3.5 | 7.0 | 0.00 | 0.00 | 0.00 | 35 | 1012.3 |
| 20260506135539 | 81 | 163 | 3.5 | 8.7 | 0.00 | 0.00 | 0.00 | 35 | 1012.4 |
| 20260506134520 | 81 | 180 | 3.5 | 11.3 | 0.00 | 0.00 | 0.00 | 34 | 1012.4 |
| 20260506133519 | 81 | 174 | 3.5 | 7.8 | 0.00 | 0.00 | 0.00 | 34 | 1012.4 |
| 20260506132522 | 81 | 172 | 2.6 | 5.2 | 0.00 | 0.00 | 0.00 | 34 | 1012.4 |
| 20260506131519 | 81 | 174 | 2.6 | 6.1 | 0.00 | 0.00 | 0.00 | 34 | 1012.5 |
| 20260506130519 | 81 | 186 | 3.5 | 10.4 | 0.00 | 0.00 | 0.00 | 33 | 1012.5 |
| 20260506125519 | 81 | 172 | 3.5 | 9.6 | 0.00 | 0.00 | 0.00 | 33 | 1012.6 |
| 20260506124520 | 82 | 189 | 2.6 | 7.8 | 0.00 | 0.00 | 0.00 | 32 | 1012.7 |
| 20260506123521 | 81 | 173 | 5.2 | 10.4 | 0.00 | 0.00 | 0.00 | 33 | 1012.8 |
| 20260506122603 | 81 | 192 | 2.6 | 7.0 | 0.00 | 0.00 | 0.00 | 33 | 1012.9 |
| 20260506121527 | 81 | 185 | 5.2 | 11.3 | 0.00 | 0.00 | 0.00 | 32 | 1013.0 |
| 20260506120522 | 82 | 140 | 1.7 | 4.3 | 0.00 | 0.00 | 0.00 | 33 | 1013.0 |
| 20260506115542 | 81 | 174 | 4.3 | 8.7 | 0.00 | 0.00 | 0.00 | 31 | 1013.2 |
| 20260506114520 | 81 | 177 | 2.6 | 7.0 | 0.00 | 0.00 | 0.00 | 30 | 1013.3 |
| 20260506113522 | 81 | 166 | 1.7 | 4.3 | 0.00 | 0.00 | 0.00 | 31 | 1013.3 |
| 20260506112519 | 81 | 132 | 3.5 | 7.8 | 0.00 | 0.00 | 0.00 | 32 | 1013.3 |
| 20260506111519 | 81 | 171 | 4.3 | 7.8 | 0.00 | 0.00 | 0.00 | 34 | 1013.4 |
| 20260506110539 | 80 | 191 | 5.2 | 9.6 | 0.00 | 0.00 | 0.00 | 34 | 1013.5 |
| 20260506105521 | 80 | 147 | 3.5 | 7.0 | 0.00 | 0.00 | 0.00 | 35 | 1013.5 |
| 20260506104523 | 80 | 134 | 2.6 | 6.1 | 0.00 | 0.00 | 0.00 | 35 | 1013.5 |
| 20260506103522 | 80 | 160 | 2.6 | 7.0 | 0.00 | 0.00 | 0.00 | 36 | 1013.6 |
| 20260506102524 | 79 | 187 | 2.6 | 7.8 | 0.00 | 0.00 | 0.00 | 37 | 1013.7 |
| 20260506101523 | 79 | 153 | 1.7 | 3.5 | 0.00 | 0.00 | 0.00 | 37 | 1013.7 |
| 20260506100521 | 79 | 163 | 2.6 | 7.0 | 0.00 | 0.00 | 0.00 | 37 | 1013.8 |
| 20260506095523 | 78 | 169 | 1.7 | 2.6 | 0.00 | 0.00 | 0.00 | 38 | 1013.9 |
| 20260506094520 | 77 | 121 | 2.6 | 6.1 | 0.00 | 0.00 | 0.00 | 39 | 1014.0 |
| 20260506093522 | 77 | 181 | 3.5 | 7.8 | 0.00 | 0.00 | 0.00 | 40 | 1014.1 |
| 20260506092520 | 77 | 187 | 3.5 | 7.8 | 0.00 | 0.00 | 0.00 | 39 | 1014.1 |
| 20260506091519 | 77 | 152 | 0.9 | 2.6 | 0.00 | 0.00 | 0.00 | 41 | 1014.1 |
| 20260506090522 | 76 | 164 | 1.7 | 6.1 | 0.00 | 0.00 | 0.00 | 41 | 1014.2 |
| 20260506085522 | 75 | 145 | 2.6 | 4.3 | 0.00 | 0.00 | 0.00 | 43 | 1014.1 |
| 20260506084520 | 74 | 128 | 0.9 | 1.7 | 0.00 | 0.00 | 0.00 | 43 | 1014.2 |
| 20260506083521 | 73 | 151 | 2.6 | 5.2 | 0.00 | 0.00 | 0.00 | 45 | 1014.2 |
| 20260506082522 | 72 | 126 | 0.9 | 1.7 | 0.00 | 0.00 | 0.00 | 45 | 1014.2 |
| 20260506081540 | 71 | 138 | 2.6 | 6.1 | 0.00 | 0.00 | 0.00 | 47 | 1014.3 |
| 20260506080525 | 71 | 144 | 2.6 | 6.1 | 0.00 | 0.00 | 0.00 | 47 | 1014.2 |